Location: Caltech
(34.1382°N, 118.1253°W)
Time: 20:56:39
(UTC-07:00)

Iridium 62 - Visible Passes

Search period start: 24 April 2014 00:00
Search period end: 04 May 2014 00:00
Orbit: 776 x 779 km, 86.4° (Epoch: 24 April)

Date Brightness Start Highest point End Pass type
(mag) Time Alt. Az. Time Alt. Az. Time Alt. Az.
24 Apr 6.6 20:37:33 10° NNE 20:42:08 31° E 20:44:19 23° ESE visible
24 Apr 7.8 22:18:32 10° NNW 22:22:38 24° W 22:24:49 18° WSW visible
25 Apr 7.4 20:05:12 10° NE 20:08:23 16° ENE 20:11:25 10° ESE visible
25 Apr 6.7 21:44:21 10° NNW 21:49:18 46° W 21:51:56 25° SW visible
26 Apr 5.7 21:10:38 10° N 21:15:51 90° E 21:19:04 24° S visible
27 Apr 6.1 20:37:18 10° NNE 20:42:18 46° E 20:46:14 16° SSE visible
27 Apr 8.4 22:19:27 10° NW 22:22:32 16° W 22:25:38 10° WSW visible
28 Apr 7.0 20:04:27 10° NNE 20:08:37 24° E 20:12:45 10° SE visible
28 Apr 7.5 21:44:45 10° NNW 21:49:17 31° W 21:53:47 10° SW visible
29 Apr 6.3 21:10:46 10° N 21:15:54 60° W 21:21:00 10° SSW visible
30 Apr 5.8 20:37:12 10° N 20:42:24 70° E 20:47:34 10° S visible
30 Apr 8.8 22:21:38 10° WNW 22:22:24 10° WNW 22:23:09 10° W visible
01 May 6.5 20:04:02 10° NNE 20:08:48 35° E 20:13:31 10° SSE visible
01 May 8.2 21:45:24 10° NW 21:49:12 21° W 21:53:00 10° SW visible
02 May 7.1 21:11:03 10° NNW 21:15:53 40° W 21:20:42 10° SSW visible
03 May 6.0 20:37:15 10° N 20:42:28 79° W 20:47:39 10° S visible
